Weather in Akhaltsikhe

Georgia     41°38′42″N   42°59′42″E
temp.,
°C
wind,
m/s
gust,
m/s
humid.,
%
clouds,
%
prec.,
mm/h
press.,
hPa
HPBL,
m
5 december, sun
sun501:00−5wsw116995 0.0 102446
04:00−4ssw126390 0.0 102385
07:00−5w1171100 0.0 102344
10:00−3ssw1261100 0.0 1023113
13:00+1s224967 0.0 1019239
16:00+3s115580 0.0 1017129
19:00−2nnw118048 0.0 102110
22:00−3nw118730 0.0 102313
6 december, mon
mon601:00−4wnw01895 0.0 102413
04:00−4wnw11875 0.0 102515
07:00−5wnw11875 0.0 102616
10:00−2s12735 0.0 1026120
13:00+3s22580 0.0 1023221
16:00+4s12645 0.0 102280
19:00−1nw118365 0.0 102611
22:00−2wnw11905 0.0 102813
7 december, tue
tue701:00−3wnw11855 0.0 102914
04:00−3wnw11795 0.0 102916
07:00−4wnw118092 0.0 102917
10:00−1ssw1269100 0.0 102799
13:00+4s235274 0.0 1023218
16:00+4s23627 0.0 1020108
19:00−1s11810 0.0 102314
22:00−3ssw11771 0.0 102528
8 december, wed
wed801:00−4sw12722 0.0 102442
04:00−4ssw11701 0.0 102434
07:00−3sw126796 0.0 102344
10:000ssw1261100 0.0 102172
13:00+4s235921 0.0 1017151
16:00+5se23626 0.0 101385
19:00+1ssw0174100 0.0 101614
22:000w0171100 0.0 101712
9 december, thu
thu901:000ssw1168100 0.0 101813
04:000ne1169100 0.0 101610
07:00−1wsw1173100 0.0 101711
10:00+2wnw0071100 0.2 101825
13:00+2wsw1296100 1.6 1018208
16:00+1wsw12100100 4.4 1020166
19:00+1wsw12100100 1.1 1022319
22:00+1sw129999 1.8 1024299